Home   Weather   Winder   Past weeks

Flag for USA Past Weather in Winder, Georgia, USA — Yesterday and Last 2 Weeks

72 °F


Feels Like: 77 °F
Forecast: 51 / 81 °F
Wind: 3 mph from West

Location: Winder-Barrow Airport

Current Time: Oct 24, 2016 at 7:39:04 PM

Latest Report: Oct 24, 2016 at 7:15 PM

Visibility: 10 mi

Pressure: 30.20 "Hg

Humidity: 41%

Dew Point: 46 °F

Location of WinderLocation

Past Weather in Winder — Graph


Winder Temperature Yesterday

Maximum temperature yesterday: 77 °F (at 4:55 PM)
Minimum temperature yesterday: 50 °F (at 12:15 AM)
Average temperature yesterday: 60 °F

High & Low Weather Summary for the Past Weeks

High88 °F (Oct 19, 12:55 PM)94% (Oct 15, 1:35 AM)30.45 "Hg (Oct 15, 1:35 AM)
Low46 °F (Oct 10, 7:55 AM)17% (Oct 23, 4:55 PM)29.85 "Hg (Oct 21, 4:15 AM)
Average66 °F60%30.19 "Hg
* Reported Oct 9 6:15 PM — Oct 24 6:15 PM, Winder, Weather by CustomWeather, © 2016

Note: Actual official high and low records may vary slightly from our data, if they occured in-between our weather recording intervals... More about our weather records


Winder Weather History for the Previous 24 Hours

Scroll right to see more
Time TempWeatherWind HumidityBarometerVisibility
6:15 PM
Mon, Oct 24
75 °FSunny.7 mph34%30.19 "Hg10 mi
5:55 PM77 °FSunny.6 mph32%30.19 "Hg10 mi
5:35 PM77 °FSunny.7 mph32%30.19 "Hg10 mi
5:15 PM79 °FSunny.8 mph28%30.19 "Hg10 mi
4:55 PM81 °FSunny.8 mph26%30.19 "Hg10 mi
4:35 PM81 °FSunny.9 mph26%30.19 "Hg10 mi
4:15 PM82 °FSunny.6 mph23%30.19 "Hg10 mi
3:55 PM82 °FSunny.7 mph23%30.19 "Hg10 mi
3:35 PM81 °FSunny.9 mph23%30.20 "Hg10 mi
3:15 PM82 °FSunny.12 mph21%30.20 "Hg10 mi
2:55 PM81 °FSunny.5 mph24%30.20 "Hg10 mi
2:35 PM81 °FSunny.10 mph21%30.21 "Hg10 mi
2:15 PM81 °FSunny.9 mph24%30.21 "Hg10 mi
1:55 PM81 °FSunny.7 mph23%30.22 "Hg10 mi
1:35 PM79 °FSunny.9 mph24%30.23 "Hg10 mi
1:15 PM79 °FSunny.9 mph24%30.24 "Hg10 mi
12:55 PM79 °FSunny.10 mph24%30.25 "Hg10 mi
12:35 PM77 °FSunny.10 mph24%30.25 "Hg10 mi
12:15 PM77 °FSunny.10 mph24%30.26 "Hg10 mi
11:55 AM77 °FSunny.8 mph24%30.26 "Hg10 mi
11:35 AM73 °FSunny.10 mph29%30.26 "Hg10 mi
11:15 AM73 °FSunny.10 mph29%30.26 "Hg10 mi
10:55 AM72 °FSunny.8 mph31%30.27 "Hg10 mi
10:35 AM72 °FSunny.8 mph33%30.27 "Hg10 mi
10:15 AM70 °FSunny.8 mph35%30.27 "Hg10 mi
9:55 AM68 °FSunny.7 mph40%30.27 "Hg10 mi
9:35 AM64 °FSunny.6 mph43%30.27 "Hg10 mi
9:15 AM63 °FSunny.5 mph49%30.27 "Hg10 mi
8:55 AM59 °FSunny.5 mph55%30.26 "Hg10 mi
8:35 AM54 °FSunny.6 mph63%30.26 "Hg10 mi
8:15 AM54 °FSunny.3 mph63%30.25 "Hg10 mi
7:55 AM52 °FSunny.No wind67%30.25 "Hg10 mi
7:35 AM50 °FClear.3 mph71%30.25 "Hg10 mi
7:15 AM50 °FClear.No wind71%30.25 "Hg10 mi
6:55 AM52 °FClear.No wind67%30.24 "Hg10 mi
6:35 AM54 °FClear.5 mph58%30.24 "Hg10 mi
6:15 AM54 °FClear.5 mph58%30.24 "Hg10 mi
5:55 AM55 °FClear.5 mph51%30.23 "Hg10 mi
5:35 AM55 °FClear.5 mph51%30.23 "Hg10 mi
5:15 AM55 °FClear.7 mph55%30.23 "Hg10 mi
4:55 AM55 °FClear.7 mph55%30.24 "Hg10 mi
4:35 AM55 °FClear.7 mph51%30.24 "Hg10 mi
4:15 AM54 °FClear.6 mph58%30.23 "Hg10 mi
3:55 AM54 °FClear.6 mph54%30.24 "Hg10 mi
3:15 AM55 °FClear.6 mph51%30.25 "Hg10 mi
2:55 AM52 °FClear.6 mph62%30.25 "Hg10 mi
2:35 AM54 °FClear.5 mph58%30.24 "Hg10 mi
2:15 AM55 °FClear.6 mph51%30.24 "Hg10 mi
1:55 AM54 °FClear.No wind54%30.25 "Hg10 mi
1:15 AM55 °FClear.3 mph51%30.25 "Hg10 mi
12:55 AM54 °FClear.6 mph54%30.26 "Hg10 mi
12:15 AM57 °FClear.6 mph44%30.26 "Hg10 mi
11:55 PM
Sun, Oct 23
54 °FClear.5 mph54%30.26 "Hg10 mi
11:15 PM55 °FClear.5 mph51%30.27 "Hg10 mi
10:55 PM55 °FClear.No wind51%30.26 "Hg10 mi
10:15 PM55 °FClear.5 mph51%30.25 "Hg10 mi
9:55 PM57 °FClear.No wind51%30.25 "Hg10 mi
9:15 PM61 °FClear.5 mph39%30.24 "Hg10 mi
8:55 PM63 °FClear.5 mph37%30.24 "Hg10 mi
8:15 PM61 °FClear.6 mph39%30.24 "Hg10 mi
7:55 PM63 °FClear.5 mph37%30.24 "Hg10 mi
7:35 PM64 °FClear.5 mph34%30.23 "Hg10 mi
7:15 PM66 °FClear.3 mph30%30.23 "Hg10 mi
Weather by CustomWeather, © 2016

See weather overviewHow to use our weather pages